Regional Weather Roundup
Issued by NWS Sioux Falls, SD

Home | Current Version | Previous Version | Text Only | Print | Product List | Glossary On
Versions: 1 2 3 4 5 6 7 8 9 10 11 12 13 14 15 16 17 18 19 20 21 22 23 24 25 26 27 28 29 30 31 32 33 34 35 36 37 38 39 40 41 42 43 44 45 46 47 48 49 50
000
ASUS43 KFSD 222210
RWRFSD

WEATHER ROUNDUP FOR SE SOUTH DAKOTA/SW MINNESOTA/NW IOWA
NATIONAL WEATHER SERVICE SIOUX FALLS SD
400 PM CST SUN JAN 22 2017

NOTE: "FAIR" INDICATES FEW OR NO CLOUDS BELOW 12,000 FEET WITH NO
SIGNIFICANT WEATHER AND OR OBSTRUCTIONS TO VISIBILITY.


SDZ038>040-050-052>070-222300-
SOUTHEAST SOUTH DAKOTA

CITY           SKY/WX    TMP DP  RH WIND       PRES   REMARKS
BROOKINGS      CLOUDY    28  27  96 NW14      29.78S FOG     WCI  17
CHAMBERLAIN    CLOUDY    32  28  86 NW18      29.87R WCI  20
HURON          CLOUDY    29  27  92 W15       29.84R WCI  18
MADISON        CLOUDY    28  28 100 NW15        N/A  WCI  17
MITCHELL       CLOUDY    32  28  85 NW14      29.86R WCI  22
SIOUX FALLS    CLOUDY    30  28  92 NW14      29.81S FOG     WCI  19
WINNER         FAIR      38  27  64 NW16      29.86R
YANKTON        SUNNY     37  28  70 NW12      29.84R
$$

MNZ071-072-080-081-089-090-097-098-222300-
SOUTHWEST MINNESOTA

CITY           SKY/WX    TMP DP  RH WIND       PRES   REMARKS
FAIRMONT       CLOUDY    37  35  92 NW14      29.75S
JACKSON        CLOUDY    34  34 100 NW13      29.76S FOG     WCI  25
LUVERNE        CLOUDY    30  28  93 NW12      29.80R FOG     WCI  21
MARSHALL       CLOUDY    32  29  88 W12       29.79R WCI  23
MONTEVIDEO     CLOUDY    34  34 100 NW8       29.80R FOG     WCI  27
PIPESTONE      FOG       28  28 100 NW12      29.78R VSB 1   WCI  18
REDWOOD FALLS  CLOUDY    34  31  88 NW10      29.77S WCI  26
TRACY          CLOUDY    33  32  96 NW10      29.78R FOG     WCI  25
WINDOM         CLOUDY    36  36 100 NW9       29.76S FOG
WORTHINGTON    CLOUDY    32  31  96 NW14      29.78R FOG     WCI  22
$$

IAZ001>003-012>014-020>022-031-032-NEZ013-014-SDZ071-222300-
NORTHWEST IOWA

CITY           SKY/WX    TMP DP  RH WIND       PRES   REMARKS
CHEROKEE       CLOUDY    36  34  94 NW9       29.80R
DENISON        CLOUDY    36  34  93 NW9       29.78R
ESTHERVILLE    CLOUDY    36  36 100 NW13      29.75R
LE MARS        CLOUDY    34  32  93 NW13      29.82S FOG     WCI  25
ORANGE CITY    CLOUDY    34  32  93 NW12      29.80R FOG     WCI  25
SHELDON        CLOUDY    32  32 100 NW14G21   29.78R FOG     WCI  22
SIOUX CITY     SUNNY     36  31  82 NW16      29.82R
SPENCER          N/A    N/A N/A N/A MISG      29.77R
STORM LAKE     CLOUDY    36  34  93 NW12G18   29.77R
$$

ABBREVIATIONS USED IN REMARKS
   TC - TEMPERATURE IN CELSIUS
  WCI - WIND CHILL INDEX
   HX - HEAT INDEX
  VSB - VISIBILITY




USA.gov is the U.S. government's official web portal to all federal, state and local government web resources and services.